Personal Rankings

Global personal rankings in each official event are listed, based on the official WCA rankings.

5x5x5 Cube    Peru    All    Single
BattleRankPersonRegionResultCompetitionDate
1Pedro Alejandro Condo TellezPeru42.40WCA Euro 20182018-07-19
2Ernesto Gutiérrez CubaPeru55.22Campeonato Nacional Perubik 20172017-08-26
3Marco Antonio Ponce de León AguilarPeru55.93TCG Spring 20192019-12-14
4Ricardo Sanchez LaurencioPeru57.79A Romper Tu PB Lima 20202020-02-29
5Smeling BecerraPeru1:02.34San Jose Cubing 20182018-03-10
6Edson Bryan Béjar RománPeru1:03.80TCG Spring 20192019-12-14
7Angel Jesus Panebra RodriguezPeru1:03.91La Tienda Cubera Christmas 20182018-12-22
8Pedro Giuseppe Garcia MillaPeru1:04.79Lima Cuberano 20202020-01-18
9Ronald Fernando Remuzgo SalazarPeru1:04.81Peru Nationals 20192019-08-16
10Michel Andre Gonzaga QuijanoPeru1:04.91Peru Nationals 20192019-08-16
11Leon AchataPeru1:04.93Peru Nationals 20182018-06-29
12Keener Zamudio JamboPeru1:05.15A Romper Tu PB Lima 20202020-02-29
13Jose Smith Caldas ReyesPeru1:05.79Lima Cuberano 20202020-01-18
14Jhon Alexander Taboada TemplePeru1:06.25Aventura Cúbica V 20182018-01-27
15Cristian HuamaníPeru1:06.46Peru Nationals 20182018-06-29
16Benjamín OchoaPeru1:06.72A Romper Tu PB Lima 20202020-02-29
17Piero Alessandro Laguna ObregónPeru1:09.19Peru Nationals 20192019-08-16
18Kevin Arturo Huamán RuizPeru1:09.46Peru Nationals 20192019-08-16
19Gerson Marcelo Nuñez HuanuiriPeru1:09.68Speedsolving Junín 20182018-08-18
20Kevin Antony Tello DelgadoPeru1:10.21Comas Speedsolving 20192019-09-28
21Christian Saenz ValdiviaPeru1:11.88Crazy Cubes Open 20162016-08-14
22Daniel Esteban Rivera DibanPeru1:11.91Salesianos Open 20182018-09-29
23Angelo Vega CastilloPeru1:12.36LatAm Tour - Lima 20172017-06-24
24Sergio Minaya PimentelPeru1:12.91A Romper Tu PB Lima 20202020-02-29
25Abel Jesús Angeles RodríguezPeru1:12.95Torneo Activa Club 20182018-05-19
26Abraham Arcila SoraluzPeru1:12.97Peru Nationals 20192019-08-16
27Angel AnampaPeru1:13.57Aventura Cubica 20162016-01-23
28Kevin Estefano Coayla VargasPeru1:14.30Salesianos Open 20182018-09-29
29Juan Pablo HuanquiPeru1:14.45TCG Spring 20192019-12-14
30Fernando TiconaPeru1:14.72TCG Deluxe 20192019-01-12
31Eugenio Nicanor Rodrìguez ArangoPeru1:15.02Palacio del Cubo 20192019-11-16
32Jarry Tapia VasquezPeru1:15.26LatAm Tour - Lima 20172017-06-24
33Anderson RojasPeru1:15.52La Tienda Cubera Christmas 20182018-12-22
34Carlos Quispe CantorinPeru1:16.01A Romper Tu PB Lima 20202020-02-29
35Jhonatan ReateguiPeru1:16.27Pucallpa Open 20182018-03-10
36Carlos Sullca MejíaPeru1:17.97La Tienda Cubera Christmas 20192019-12-21
37Alonzo EscobedoPeru1:18.55LatAm Tour - Lima 20172017-06-24
38Valentino NuñezPeru1:18.85Iquitos Cubing 20182018-11-03
39Walter FelixPeru1:19.20FIGHT Peru 20182018-04-21
40Freddy Fernández CórdovaPeru1:19.74Lima Rubik 20162016-08-27
41Geanpiero Sebastian Arias ZuazoPeru1:20.67Speedcuber Perú Otoño 20192019-04-20
42Walter Dominguez GironPeru1:20.82A Romper Tu PB Lima 20202020-02-29
43Jose Emilio Ramos HuamanPeru1:21.30Speedcubing Ilo 20182018-06-09
44Gianfranco Camones CaychoPeru1:21.52Lima Cuberano 20202020-01-18
45Gustavo Ofer Churampi VicharraPeru1:21.94Speedsolving Junín 20182018-08-18
46Fernando Vilca LeonardoPeru1:22.23TCG Deluxe 20192019-01-12
47Brandon Rodriguez JuarezPeru1:23.19Peru Nationals 20182018-06-29
48Lucciano FlorezPeru1:23.54San Jose Cubing 20182018-03-10
49Miguel DíazPeru1:23.96Palacio del Cubo 20192019-11-16
50Gustavo Andre Taipe GratellyPeru1:25.01ChimboteRubik 20172017-08-19
51Andrés Hisashi SuzukiPeru1:25.80Palacio del Cubo 20192019-11-16
52Pedro Luis Mamani SucllaPeru1:26.34TCG Spring 20192019-12-14
53Gianpierre PoncePeru1:26.66Aventura Cúbica VI 20182018-10-20
54Giordano Limber Aguilar AllccaPeru1:26.81A Romper Tu PB Lima 20202020-02-29
55Alex Anderson Bedon ValentinPeru1:27.82Aventura Cúbica VI 20182018-10-20
56Andres Armando Montalvo VeraPeru1:27.90II Open Arguedas 20142014-10-24
57Daniel Quiñones OlgadoPeru1:27.92TCG Spring 20192019-12-14
58Kevin Rojas TaumaPeru1:28.38Aventura Cúbica VII 20192019-02-16
59Abel Gomez TorresPeru1:28.41Lima Rubik 20162016-08-27
60Nick Joselo Rojas QuiñonesPeru1:28.47GeekStore Speedsolving 20192019-12-28
61Rodrigo Vladimir Remuzgo SalazarPeru1:28.63Speedsolving Junín 20182018-08-18
62Rodrigo AguilarPeru1:28.73Martorell Open 20192019-11-16
63Hua Long Javier Wan ZhuPeru1:29.04Aventura Cúbica VII 20192019-02-16
64Oscar Paul Mamani OscallaPeru1:29.10Mariano Melgar Speedcubing 20182018-08-04
65Juan Daniel Ramirez RodriguezPeru1:29.54CCS 20182018-03-02
66Diego Alonso Calderón BustosPeru1:29.76Palacio del Cubo 20192019-11-16
67Kevin Poma VillarPeru1:30.09FIGHT Peru 20182018-04-21
68Sebastian Porras TenorioPeru1:30.14Aventura Cúbica V 20182018-01-27
69Juan Antonio Arauco JiménezPeru1:30.80A Romper Tu PB Lima 20202020-02-29
70Juan Javier Quispe LujanPeru1:30.87Nacional Perubik 20132013-04-05
71César Chalco ElíasPeru1:30.92Aventura Cúbica V 20182018-01-27
72Josué Esteban Bacilio ChicomaPeru1:31.25Crazy Cubes Spring 20172017-09-24
73Hugo Fernando Centeno BustamantePeru1:31.70Peru Nationals 20192019-08-16
74Piero Stefano Menéndez JaramilloPeru1:32.22Speedcubing Ilo 20182018-06-09
75Marco Antonio Sánchez HuamaniPeru1:32.70Salesianos Open 20182018-09-29
76Hector HuanqquePeru1:33.14San Martin Open 20152015-10-10
77Clever Isaac Quijano TaipePeru1:33.20Peru Nationals 20192019-08-16
78Angelo Giovanni Licetti LeónPeru1:33.55Crazy Cubes Christmas 20172017-12-16
79Ivan Salomón Pure AltezPeru1:33.59Copa Black Horse 20192019-06-01
80Gadiel AriasPeru1:34.10TCG Deluxe 20192019-01-12
81Zamir PantojaPeru1:34.34Speedsolving Junín 20182018-08-18
82Kevin AtachaguaPeru1:34.65LTC Cube Fest 20172017-07-22
83Jesus Crisostomo GutierrezPeru1:35.01TCG & Friends 20152015-07-11
84Carlos Daniel Torres TelloPeru1:35.55GeekStore Speedsolving 20192019-12-28
85Diego Simeone Cotera EspinozaPeru1:35.96Palacio del Cubo 20192019-11-16
86Josseph Eduardo Gómez AlcántaraPeru1:36.11Peru Nationals 20192019-08-16
87Dewin BerdejoPeru1:36.45UCSM Supérate Open 20162016-06-11
88Jonatan Ariel Acuña CorahuaPeru1:36.66Peru Nationals 20192019-08-16
89Marco Alzamora CuetoPeru1:36.99Peru Nationals 20182018-06-29
90Cesar Paolo Vargas DavilaPeru1:37.00Aventura Cúbica VII 20192019-02-16
91Daniel Raul Alarcon EspinozaPeru1:38.19Peru Nationals 20182018-06-29
92Piero Andre Abril MaldonadoPeru1:38.50Salesianos Open 20182018-09-29
93Yared Orihuela De la CruzPeru1:38.57Speedsolving Junín 20182018-08-18
94Max Mondragón MendizabalPeru1:40.15Palacio del Cubo 20192019-11-16
95Erik Paico RoblesPeru1:40.39Palacio del Cubo 20132013-10-26
96Saúl JavierPeru1:41.51UNSA Speedcubing 20162016-10-29
97Nicolas HermozaPeru1:41.78La Tienda Cubera Christmas 20192019-12-21
98Percy Manuel Azpur HuillcaPeru1:42.09Salesianos Open 20182018-09-29
99Alexander MontoyaPeru1:42.40Comas Speedsolving 20192019-09-28
100Diego Carpio PérezPeru1:42.70Palacio del Cubo 20192019-11-16